Wetbulb
64.92 65.89 65.02 65.19 65.33 66.42 68.10 67.00 66.55 68.75 67.44 65.06 65.90 66.55 66.85 68.58 73.79 74.65 74.38 72.84 73.42 70.85
65.50 65.31 63.81 65.27 66.70 66.58 69.15 68.66 69.08 69.44 67.87 66.99 68.83 71.78 71.16 73.58 73.93 74.46 74.05 73.23 72.47 72.81
63.57 64.44 64.92 65.81 65.53 65.99 66.73 67.45 69.59 69.00 72.02 72.78 73.17 73.65 74.86 74.35 74.48 73.88 73.49 72.79 72.13 71.77
62.25 63.78 64.58 64.43 64.65 64.88 67.43 68.28 68.92 69.05 70.56 72.50 73.99 74.52 74.25 74.13 73.88 73.41 72.48 71.97 71.15 71.56
62.59 63.71 63.78 63.06 64.11 66.79 66.32 68.38 68.70 69.79 70.20 69.85 69.93 72.61 73.71 73.66 73.65 72.52 71.18 71.23 71.08 71.30
61.85 63.32 63.07 63.78 64.26 65.00 65.45 66.51 68.11 69.29 69.66 70.75 71.46 72.34 73.62 73.90 72.93 71.55 71.50 71.56 71.28 71.16
62.16 63.26 64.11 64.64 63.81 63.51 64.23 65.05 67.15 68.85 69.81 70.76 70.68 72.03 73.47 73.23 71.41 71.20 72.10 72.08 72.13 71.73
62.25 63.69 62.82 62.42 62.90 63.29 63.70 65.30 66.41 67.40 69.11 69.79 70.90 71.92 72.21 71.97 71.51 71.98 71.63 72.45 72.19 71.23
59.62 60.44 61.41 61.22 62.67 62.52 62.94 64.29 66.46 67.22 67.82 68.92 70.08 60.63 59.87 68.06 71.67 72.40 71.38 70.75 70.60 67.71
57.46 58.84 59.62 60.55 60.94 61.96 63.74 63.71 64.96 67.66 68.20 68.34 70.39 51.20 55.07 59.63 72.07 71.63 71.01 70.47 69.93 67.64
56.57 57.22 58.29 59.46 60.41 61.47 62.81 64.14 65.74 67.59 68.82 68.89 68.98 50.67 52.18 58.05 71.26 70.61 70.21 70.44 69.49 68.71
54.83 56.51 57.50 57.75 60.19 61.82 62.39 63.07 66.25 67.83 69.44 69.18 63.51 49.98 51.88 63.82 70.20 69.44 69.40 69.20 69.11 68.12
56.35 56.67 56.82 58.14 60.04 61.11 63.59 65.14 66.36 67.16 69.81 63.46 65.15 47.76 51.75 63.08 69.00 67.71 66.71 67.50 62.93 54.59
56.61 56.82 57.17 58.70 61.10 62.26 63.01 65.15 64.83 67.21 68.85 68.50 64.01 56.30 48.14 53.51 67.48 66.52 65.89 64.96 65.89 60.72
MSLP
1004.53 1004.44 1005.27 1005.28 1005.10 1005.07 1004.92 1004.62 1004.62 1005.72 1004.67 1006.67 1006.82 1005.95 1006.58 1007.64 1006.29 1005.51 1005.65 1005.44 1005.79 1005.78
1004.40 1004.68 1004.83 1004.53 1004.62 1004.55 1004.24 1004.28 1004.54 1004.59 1004.52 1005.46 1006.01 1004.35 1004.99 1005.62 1004.85 1004.71 1004.62 1004.61 1005.37 1005.35
1003.99 1004.09 1004.14 1004.12 1004.17 1004.04 1004.09 1003.73 1003.26 1001.98 1002.56 1003.12 1003.19 1003.22 1003.49 1003.83 1003.72 1004.31 1004.16 1004.17 1004.55 1004.91
1003.06 1002.99 1003.15 1003.35 1003.45 1003.42 1003.32 1003.26 1002.69 1001.64 1002.08 1002.19 1002.33 1002.49 1002.78 1002.86 1003.26 1003.46 1003.83 1003.56 1003.94 1004.46
1002.46 1002.66 1002.73 1002.80 1002.76 1002.66 1002.43 1002.23 1001.84 1001.63 1001.91 1001.63 1001.64 1001.80 1001.99 1002.39 1002.34 1002.62 1003.06 1003.26 1003.48 1004.05
1001.53 1001.70 1001.76 1001.80 1001.84 1001.72 1001.69 1001.28 1001.04 1000.90 1001.00 1000.89 1000.71 1001.00 1001.38 1001.39 1001.85 1001.93 1002.31 1002.60 1002.99 1003.41
1000.68 1000.80 1000.95 1000.93 1000.85 1000.86 1000.65 1000.60 1000.30 1000.09 1000.13 999.92 1000.11 1000.09 1000.31 1000.61 1001.26 1001.34 1001.54 1001.82 1002.48 1002.89
999.79 999.93 1000.06 1000.11 999.95 999.80 999.71 999.40 999.35 999.18 999.02 999.01 998.90 998.66 999.17 999.87 1000.47 1000.73 1001.01 1001.48 1002.07 1002.43
999.58 999.17 999.29 999.51 999.28 998.92 998.78 998.70 998.38 998.10 997.92 997.88 997.71 997.69 998.32 999.07 999.59 1000.17 1000.70 1001.46 1002.03 1002.57
999.50 999.01 998.72 998.76 998.53 998.28 997.88 997.87 997.61 997.52 997.25 997.29 997.30 997.71 998.04 998.36 998.86 999.73 1000.57 1001.31 1001.95 1002.72
999.66 998.49 997.86 997.74 997.64 997.66 997.27 997.04 996.77 996.80 996.91 997.24 997.41 997.72 998.17 998.22 998.81 999.59 1000.52 1001.08 1001.87 1002.61
998.93 997.72 997.32 996.94 996.87 996.73 996.63 996.33 996.18 996.28 996.47 996.88 997.54 998.06 998.15 998.15 998.77 999.76 1000.61 1001.15 1002.05 1002.47
997.35 997.08 996.66 996.46 996.01 995.92 995.96 995.53 995.73 995.85 995.80 996.21 997.44 998.33 998.00 998.07 998.87 999.99 1000.96 1001.62 1002.42 1002.69
996.48 996.11 995.86 995.73 995.48 995.41 995.64 995.38 995.18 995.23 995.35 996.15 996.96 998.20 998.77 998.83 999.09 999.87 1000.69 1001.23 1002.25 1002.99
Wind_Speed
5 4 6 7 6 7 7 7 9 13 21 28 17 16 20 18 19 11 10 10 5 5
5 7 7 6 5 6 8 8 12 15 26 23 22 19 18 17 13 11 9 8 9 5
7 9 8 8 9 8 9 11 11 5 7 18 20 17 16 13 11 10 8 8 9 8
9 8 7 8 9 10 10 10 10 9 9 11 14 15 14 13 12 14 11 8 8 8
7 7 8 8 9 9 9 9 10 10 14 14 15 13 13 14 13 13 12 10 7 9
9 9 8 8 9 10 11 12 12 12 13 14 15 14 15 15 14 11 12 10 10 8
8 7 7 8 10 11 12 13 13 12 14 14 15 15 15 13 13 10 11 9 9 8
8 6 7 12 12 11 11 12 14 14 14 14 13 11 14 14 12 9 8 7 7 6
16 10 9 12 12 12 12 12 12 13 12 12 11 15 19 15 11 8 8 9 7 6
12 16 11 14 14 13 11 13 13 13 11 11 12 10 18 15 8 9 8 8 6 7
16 17 13 13 14 14 11 11 12 13 11 10 6 14 15 15 11 8 7 7 7 6
24 18 17 14 13 11 12 12 11 12 11 12 7 10 16 13 9 7 7 7 8 8
16 19 17 15 14 13 15 8 8 12 12 11 11 9 16 12 8 8 6 6 6 8
19 18 15 15 12 10 11 10 11 14 10 11 11 7 9 10 8 9 7 7 5 5
Wind_Direction
271 210 231 246 243 254 218 227 220 212 194 221 230 225 218 233 240 223 212 208 222 216
255 250 246 243 262 276 280 237 226 215 222 227 225 217 218 228 227 215 207 194 218 228
225 233 239 236 237 240 257 276 284 276 264 213 210 215 217 221 223 214 216 202 193 214
235 238 236 238 242 246 239 234 250 268 261 250 222 213 219 215 212 216 213 192 198 189
231 233 224 227 244 250 254 253 245 240 251 235 236 226 218 215 214 206 197 207 186 188
223 227 231 232 234 241 246 253 248 244 236 241 227 221 216 212 214 202 198 191 195 190
226 228 247 247 230 233 241 247 248 242 237 232 235 220 209 203 207 229 187 186 190 183
232 233 248 261 254 245 245 243 241 242 234 232 228 215 193 195 205 204 174 160 178 172
284 243 241 253 254 241 242 248 249 244 232 231 233 211 172 187 190 174 167 172 178 107
287 264 251 258 259 263 237 231 237 251 235 242 220 181 171 166 169 153 167 151 148 147
278 269 266 253 242 254 256 251 229 234 234 240 204 158 160 152 151 158 156 148 148 171
275 264 268 265 259 252 255 241 253 230 222 229 155 171 145 141 134 135 144 151 173 177
248 255 259 263 254 247 256 234 239 235 224 151 148 192 145 141 136 133 156 171 121 85
259 254 264 264 267 265 259 252 230 228 177 153 149 140 122 86 146 165 175 153 132 89